Погода в Посудичах

Россия / Брянская область     52°37′23″N   33°15′31″E
темп.,
°C
ветер,
м/с
пор.,
м/с
влажн.,
%
обл.,
%
осадки,
мм/ч
давл.,
гПа
погр.,
м
11 апреля, вс
вс1100:00+4ююз36660 0.0 102691
03:00+3ююз34680 0.0 102762
06:00+3ююз33690 0.0 102826
09:00+7ю34570 0.0 1029261
12:00+12ю33440 0.0 1029896
15:00+14юв22380 0.0 10291273
18:00+13в23460 0.0 1029175
21:00+9в33620 0.0 102927
12 апреля, пн
пн1200:00+7в33674 0.0 103035
03:00+5всв3471100 0.0 103057
06:00+4всв3877100 0.0 1029134
09:00+8всв5958100 0.0 1027377
12:00+11в5665100 0.0 1026781
15:00+11в3473100 0.3 1025496
18:00+12всв3578100 0.0 1024240
21:00+10св3387100 0.0 102348
13 апреля, вт
вт1300:00+10всв3490100 0.0 102249
03:00+9вюв2291100 0.0 102221
06:00+9в3388100 0.0 102132
09:00+11вюв3981100 0.0 1020383
12:00+16юв686599 0.0 1019907
15:00+17ююв5861100 0.4 10191103
18:00+14ююв3876100 0.4 1019282
21:00+13ююв3685100 0.4 1019148
14 апреля, ср
ср1400:00+11ююв388959 0.0 1019180
03:00+10ююв2589100 0.0 1019117
06:00+10юв2387100 0.0 101861
09:00+10юв2491100 0.3 1018122
12:00+13юв387996 0.0 1017718
15:00+13ю367897 0.1 1017410
18:00+12ю238434 0.0 1016202
21:00+9юз1191100 0.0 101710
15 апреля, чт
чт1500:00+9ссз2289100 0.0 101712
03:00+9ссв238899 0.0 101652
06:00+9ссз2293100 0.3 101540
09:00+12ссв3384100 0.9 1015119
12:00+14в1465100 0.6 1014346
15:00+16ссв4448100 0.7 1012825
18:00+15ссв51062100 0.0 1011380
21:00+12с51276100 0.0 1010305